Location: Middle Street
(51.7167°N, 0.0333°E)
Time: 20:12:22
(UTC+00:00)

Okean-O - Pass Details

Date: 20 January 2021
Orbit: 638 x 641 km, 98.2° (Epoch: 27 February)

Event Time Altitude Azimuth Distance (km) Brightness Sun altitude
Rises 18:08:02 0° 153° (SSE) 2,937 5.9 -15.1°
Reaches altitude 10° 18:10:15 10° 150° (SSE) 2,033 5.0 -15.4°
Maximum altitude 18:14:36 61° 71° (ENE) 734 2.6 -16.1°
Drops below altitude 10° 18:19:00 10° 351° (N) 2,048 5.2 -16.7°
Sets 18:21:14 0° 348° (NNW) 2,962 6.1 -17.1°
